[[{"header":{"parameterUnit":"m.s-1","parameterCategory":1,"la1":30.2991,"la2":30.254,"lo1":-89.0895,"lo2":-89.0444,"dy":0.0017,"dx":0.0017,"nx":28,"ny":28,"refTime":"2024-06-27T03:00:00:Z","depth":0,"parameterNumber":2,"parameterNumberName":"U-component_of_WINDS"},"data":[0,0,0,0,0,0,0,0,0,0,0,0,0,0,0,0,0,0,0,0,0,0,0,0,0,0,0,0,0,0,0,0,0,0,0,0,0,0,0,0,0,0,0,0,0,0,0,0,0,0,0,0,0,0,0,0,0,0,2.4785,2.4786,0,2.4906,2.4907,2.4908,2.4908,2.4907,2.4905,2.4903,2.5022,2.5027,2.5031,0,0,0,0,0,0,0,0,0,0,0,0,0,2.4548,2.4552,2.4785,2.4786,2.4788,2.4905,2.4907,2.4909,2.4908,2.4906,2.4905,2.4903,2.5021,2.5026,2.5032,0,0,0,0,0,0,0,0,0,0,0,0,0,2.4658,2.4554,2.4785,2.4802,2.4805,2.4905,2.4907,2.4909,2.4909,2.4906,2.4904,2.4902,2.5019,2.5025,2.5032,2.5122,0,0,2.5053,2.5056,0,0,0,0,0,0,0,0,2.4651,2.4666,2.4798,2.4801,2.4804,2.489,2.4867,2.498,2.4909,2.4869,2.4903,2.4901,2.498,2.499,2.5017,2.5127,2.5132,2.5054,2.5058,2.5061,2.5063,0,0,0,0,0,0,0,2.4644,2.4661,2.4832,2.48,2.4804,2.4802,2.4815,2.4888,2.4936,2.4872,2.4873,2.4887,2.4981,2.501,2.502,2.5134,2.5054,2.506,2.5064,2.5067,2.5321,2.5323,0,0,0,0,0,0,2.4633,2.4655,2.4829,2.4836,2.4721,2.4808,2.4822,2.4864,2.4935,2.4944,2.4889,2.4887,2.5,2.5012,2.5024,2.5132,2.5061,2.5068,2.5072,2.5318,2.5322,2.5324,0,0,0,0,0,0,2.4628,2.4649,2.4824,2.4746,2.4768,2.4814,2.4862,2.4868,2.4898,2.4948,2.4956,2.4911,2.4998,2.5014,2.5097,2.5137,2.5071,2.5077,2.5315,2.5319,2.5323,2.535,0,0,0,0,0,0,2.4622,2.4647,2.4683,2.4747,2.4772,2.4897,2.4864,2.4872,2.491,2.4908,2.4971,2.4979,2.4998,2.5087,2.5104,2.5145,2.5082,2.5312,2.5317,2.5322,2.5346,2.5355,2.5362,0,0,0,0,0,2.4613,2.4686,2.4685,2.4706,2.4819,2.4899,2.4914,2.4936,2.4914,2.4949,2.4981,2.4977,2.5129,2.5095,2.5115,2.5158,2.531,2.5316,2.5321,2.5343,2.5353,2.5362,0,0,0,0,0,0,2.4625,2.4694,2.4695,2.479,2.4839,2.4899,2.4945,2.4947,2.5002,2.4997,2.5021,2.5035,2.5117,2.5146,2.5107,2.5247,2.5216,2.5226,2.5226,2.5236,2.5244,2.5236,2.5088,0,0,0,0,0,2.4638,2.47,2.4757,2.4836,2.486,2.4898,2.4934,2.4947,2.4998,2.5018,2.5056,2.5104,2.5163,2.5201,2.5258,2.535,2.5362,2.5389,2.5397,2.5403,2.5411,2.546,2.5473,2.5344,2.5344,2.5343,0,0,2.4667,2.4713,2.4751,2.4839,2.4879,2.494,2.4916,2.4982,2.5028,2.5028,2.5109,2.5138,2.5193,2.528,2.5321,2.5307,2.545,2.541,2.5415,2.542,2.5468,2.548,2.5491,2.5348,2.5347,2.5346,0,0,2.4752,2.4793,2.4863,2.4903,2.4963,2.4987,2.5004,2.5064,2.5084,2.5165,2.5166,2.5219,2.532,2.5359,2.5392,2.5488,2.5485,2.5505,2.5547,2.5595,2.5605,2.5614,2.5647,2.5659,2.5513,2.5514,2.5514,0,2.478,2.4875,2.4898,2.4965,2.5003,2.5007,2.5076,2.5113,2.5188,2.5213,2.5196,2.5322,2.5359,2.5455,2.5478,2.5505,2.5523,2.5499,2.5602,2.5611,2.562,2.5652,2.5665,2.5516,2.5515,2.5515,2.5515,0,2.4905,2.4971,2.5019,2.5093,2.5136,2.5204,2.5235,2.5275,2.5284,2.5309,2.5391,2.5435,2.55,2.5524,2.5532,2.562,2.561,2.5597,2.5567,2.5634,2.5664,2.5677,2.5518,2.5518,2.5517,2.5517,0,0,2.5002,2.5087,2.5104,2.5137,2.5203,2.5253,2.5319,2.5384,2.5418,2.5468,2.5523,2.5608,2.5596,2.5633,2.5645,2.5687,2.5759,2.5669,2.567,2.5684,2.5857,2.5866,2.588,2.5757,2.5759,2.5761,2.5852,0,2.5094,2.5214,2.5236,2.534,2.54,2.5403,2.546,2.5505,2.553,2.5582,2.5608,2.5668,2.5649,2.5671,2.5712,2.5741,2.5794,2.5735,2.5807,2.5809,2.5794,2.5896,2.5907,2.599,2.5864,2.5866,2.5868,0,2.5217,2.5272,2.5383,2.5439,2.5465,2.5516,2.5577,2.5627,2.5677,2.5692,2.5732,2.5739,2.5805,2.5771,2.5862,2.5821,2.5851,2.587,2.5873,2.5881,2.5843,2.5906,2.6018,2.603,2.5887,2.5885,2.5884,0,2.5276,2.5377,2.5457,2.5484,2.5552,2.5588,2.5617,2.5665,2.5702,2.5754,2.5777,2.5835,2.5867,2.5911,2.5932,2.5905,2.602,2.5988,2.6033,2.6033,2.6058,2.6056,2.6175,2.6077,2.6077,2.6077,2.6076,0,2.5376,2.5444,2.5484,2.5533,2.5607,2.563,2.5702,2.573,2.5772,2.5825,2.583,2.5878,2.5903,2.5955,2.5971,2.6043,2.6057,2.6069,2.6073,2.6069,2.6068,2.609,2.6084,2.608,2.6079,2.6079,2.6078,0,2.5456,2.5486,2.5572,2.5628,2.5644,2.5696,2.5744,2.5789,2.5813,2.5879,2.5895,2.5932,2.5993,2.6018,2.6092,2.6103,2.6185,2.6184,2.6169,2.617,2.6213,2.6208,2.6351,2.637,2.6259,2.626,2.6261,0,2.5518,2.557,2.5632,2.5668,2.5699,2.5757,2.5795,2.5818,2.5856,2.5916,2.5954,2.6015,2.6065,2.6161,2.6193,2.6248,2.6249,2.6295,2.6257,2.6251,2.6249,2.6246,2.625,2.6302,2.6303,2.6304,2.6304,0,2.5625,2.5637,2.5692,2.5753,2.5798,2.5846,2.5893,2.5921,2.5951,2.5993,2.6056,2.6095,2.617,2.623,2.6287,2.6314,2.6314,2.6316,2.6329,2.6326,2.6315,2.6321,2.6187,2.6313,2.6312,2.6311,2.6311,2.6311,2.5698,2.5743,2.5794,2.5855,2.5893,2.5936,2.5981,2.6011,2.6064,2.6128,2.6137,2.6204,2.6249,2.6327,2.6356,2.6406,2.6395,2.6414,2.6419,2.6423,2.6426,2.6306,2.6417,2.6417,2.6416,2.6416,2.6416,0,2.5805,2.5837,2.5893,2.5959,2.6006,2.6002,2.6053,2.6092,2.6151,2.6194,2.6243,2.6314,2.6371,2.6406,2.6463,2.6497,2.6497,2.6511,2.6508,2.6514,2.6434,2.6416,2.6509,2.6509,2.6509,2.6509,2.6509,2.6509,2.5866,2.5943,2.5961,2.6055,2.6086,2.6153,2.6182,2.622,2.6255,2.6334,2.6382,2.6405,2.6445,2.6504,2.6555,2.6564,2.6584,2.6598,2.6606,2.653,2.652,2.6511,2.6495,2.6603,2.6603,2.6683,2.6683,2.6684]},{"header":{"parameterUnit":"m.s-1","parameterCategory":1,"la1":30.2991,"la2":30.254,"lo1":-89.0895,"lo2":-89.0444,"dy":0.0017,"dx":0.0017,"nx":28,"ny":28,"refTime":"2024-06-27T03:00:00:Z","depth":0,"parameterNumber":3,"parameterNumberName":"V-component_of_WINDS"},"data":[0,0,0,0,0,0,0,0,0,0,0,0,0,0,0,0,0,0,0,0,0,0,0,0,0,0,0,0,0,0,0,0,0,0,0,0,0,0,0,0,0,0,0,0,0,0,0,0,0,0,0,0,0,0,0,0,0,0,5.5426,5.543,0,5.5775,5.5779,5.5783,5.5838,5.5835,5.5832,5.5829,5.6181,5.6193,5.6205,0,0,0,0,0,0,0,0,0,0,0,0,0,5.4798,5.4809,5.5426,5.543,5.5435,5.5775,5.5779,5.5784,5.5839,5.5835,5.5832,5.5828,5.6177,5.6191,5.6206,0,0,0,0,0,0,0,0,0,0,0,0,0,5.5101,5.4813,5.5425,5.5503,5.5514,5.5774,5.5779,5.5785,5.584,5.5835,5.5831,5.5826,5.6172,5.619,5.6208,5.6412,0,0,5.6264,5.6272,0,0,0,0,0,0,0,0,5.5083,5.5124,5.5487,5.5498,5.551,5.5759,5.5687,5.5995,5.5841,5.5716,5.5829,5.5824,5.6044,5.6072,5.6148,5.6429,5.6444,5.6265,5.6276,5.6284,5.6289,0,0,0,0,0,0,0,5.5062,5.5109,5.5564,5.5492,5.5507,5.5518,5.5556,5.5745,5.5901,5.5726,5.5731,5.5772,5.6049,5.613,5.6156,5.6449,5.6265,5.6281,5.6292,5.6299,5.6912,5.6917,0,0,0,0,0,0,5.5028,5.5091,5.5553,5.5574,5.5281,5.5533,5.5575,5.5683,5.5899,5.5928,5.5776,5.5773,5.6101,5.6135,5.6169,5.6422,5.6284,5.6301,5.6312,5.6907,5.6914,5.6919,0,0,0,0,0,0,5.5015,5.5069,5.5539,5.5334,5.5395,5.5549,5.567,5.5693,5.5774,5.5936,5.5964,5.583,5.6098,5.6143,5.6351,5.6435,5.6309,5.6326,5.6901,5.6909,5.6916,5.693,0,0,0,0,0,0,5.4996,5.5064,5.5146,5.5336,5.5406,5.5718,5.5675,5.5703,5.5806,5.5806,5.5995,5.6022,5.6098,5.6324,5.6369,5.6458,5.634,5.6894,5.6905,5.6914,5.6923,5.6938,5.695,0,0,0,0,0,5.4974,5.5135,5.515,5.5205,5.5512,5.5723,5.5763,5.585,5.5813,5.5895,5.5998,5.6016,5.6417,5.6345,5.6397,5.6492,5.6889,5.6902,5.6913,5.6917,5.6935,5.695,0,0,0,0,0,0,5.495,5.5161,5.518,5.5408,5.5547,5.5732,5.5839,5.5866,5.6017,5.6011,5.611,5.6152,5.6355,5.6443,5.6358,5.6699,5.665,5.6673,5.6635,5.6654,5.6667,5.6642,5.6356,0,0,0,0,0,5.4971,5.5128,5.5303,5.5487,5.5556,5.5685,5.578,5.5835,5.5982,5.6041,5.616,5.63,5.6458,5.656,5.6714,5.6934,5.6975,5.7025,5.7038,5.7049,5.7068,5.7189,5.7213,5.6959,5.6958,5.6958,0,0,5.5017,5.5151,5.5244,5.5485,5.56,5.5757,5.5734,5.5902,5.602,5.6066,5.6271,5.6362,5.6525,5.6739,5.684,5.682,5.7147,5.7064,5.7071,5.7086,5.7204,5.7228,5.7249,5.6967,5.6965,5.6964,0,0,5.5181,5.5299,5.5465,5.558,5.5753,5.5837,5.5876,5.6057,5.612,5.6327,5.6365,5.6503,5.6773,5.6887,5.698,5.7182,5.7203,5.7228,5.7301,5.7418,5.7438,5.7456,5.7528,5.7552,5.7247,5.7247,5.7247,0,5.5216,5.5458,5.5546,5.5714,5.5817,5.5866,5.6033,5.6139,5.6353,5.6422,5.6396,5.6734,5.6847,5.7089,5.7137,5.7211,5.7257,5.721,5.7428,5.7447,5.7466,5.7535,5.7562,5.7249,5.7249,5.7248,5.7248,0,5.5491,5.5657,5.577,5.5977,5.6093,5.6258,5.6369,5.6475,5.6517,5.6603,5.6811,5.6947,5.7129,5.7189,5.7232,5.7436,5.7418,5.7408,5.7361,5.7491,5.7557,5.7585,5.7252,5.7251,5.725,5.725,0,0,5.5656,5.5907,5.5947,5.604,5.6233,5.6362,5.6527,5.6706,5.6795,5.6938,5.7079,5.7304,5.7296,5.7401,5.7456,5.7558,5.7708,5.7536,5.7542,5.7564,5.794,5.7947,5.7977,5.7721,5.7727,5.7731,5.7926,0,5.5844,5.6145,5.6227,5.6481,5.6634,5.668,5.6823,5.6955,5.7038,5.7177,5.7266,5.7425,5.7402,5.7466,5.7569,5.7668,5.7785,5.7655,5.7852,5.7858,5.7812,5.8012,5.8021,5.8199,5.7953,5.7957,5.7961,0,5.6106,5.6256,5.6525,5.6695,5.6763,5.6891,5.706,5.7194,5.7342,5.7394,5.751,5.7555,5.7725,5.7665,5.7901,5.781,5.7894,5.7954,5.7963,5.7987,5.7919,5.8042,5.8258,5.8285,5.8003,5.7999,5.7996,0,5.6199,5.6468,5.6664,5.6742,5.6946,5.7034,5.7123,5.7267,5.7368,5.7514,5.758,5.7742,5.7832,5.7955,5.8041,5.799,5.8268,5.8216,5.8315,5.8313,5.8375,5.837,5.8609,5.8425,5.8425,5.8424,5.8424,0,5.6403,5.6566,5.6709,5.683,5.7012,5.7102,5.7279,5.7368,5.7495,5.7631,5.7678,5.7804,5.7909,5.8048,5.8115,5.8298,5.8338,5.8383,5.84,5.8381,5.8375,5.844,5.843,5.8431,5.843,5.8428,5.8427,0,5.6541,5.6643,5.686,5.7033,5.708,5.7207,5.7354,5.7471,5.7553,5.7724,5.7769,5.7897,5.8063,5.816,5.8368,5.8413,5.8617,5.8626,5.8568,5.8576,5.8669,5.866,5.8959,5.9003,5.8788,5.879,5.8792,0,5.6666,5.6792,5.6979,5.7074,5.7164,5.7317,5.7421,5.7511,5.7616,5.7792,5.7887,5.8055,5.8196,5.8457,5.8567,5.8726,5.8741,5.8834,5.8765,5.8741,5.8743,5.8735,5.8748,5.8847,5.8849,5.8851,5.8852,0,5.6876,5.6919,5.7068,5.7234,5.7356,5.7491,5.7624,5.7698,5.781,5.7925,5.8096,5.8205,5.8417,5.8583,5.875,5.8837,5.8863,5.8872,5.8904,5.8887,5.8848,5.8871,5.8602,5.8866,5.8864,5.8863,5.8863,5.8862,5.7013,5.7127,5.7275,5.7438,5.7547,5.767,5.7788,5.7884,5.8028,5.821,5.8253,5.8432,5.8572,5.8799,5.8889,5.9028,5.9012,5.9058,5.907,5.908,5.9083,5.8823,5.9058,5.9058,5.9058,5.9058,5.9057,0,5.7227,5.7323,5.7472,5.7657,5.7784,5.7797,5.7944,5.8049,5.8206,5.8336,5.8472,5.8666,5.8826,5.8946,5.9109,5.9196,5.9212,5.9236,5.9232,5.9251,5.9088,5.9045,5.9221,5.9221,5.9221,5.9221,5.9221,5.922,5.7353,5.7546,5.7606,5.7852,5.7947,5.8125,5.8207,5.8318,5.8422,5.8637,5.8771,5.8848,5.8973,5.9145,5.929,5.9321,5.9379,5.9402,5.9434,5.928,5.9263,5.9246,5.9206,5.9413,5.9413,5.9586,5.9588,5.9589]}]]